Wind_Speed
10 11 12 14 15 16 17 17 18 20 21 22 23 24 24 25 25 25 24 23 22 22 22 23 23 23 23 24 24 25 26 27 28 29 30 30 31 31 31 31 32 32 33 34 36 38 38 38 40 42 45 48 52 55 59 62 66 69 72 74 76 76 75 74 72 70 70 72 74 74 75 75 72 69 67 64 61 60 58 58 58 59 59 61 63
10 11 13 14 15 15 16 17 18 19 21 22 23 24 24 25 25 25 24 23 23 23 23 23 23 23 24 24 25 26 27 28 29 30 31 31 31 31 32 32 33 33 35 36 37 38 38 39 41 44 48 51 54 58 61 65 68 72 74 76 76 76 75 74 74 74 73 74 74 72 69 66 62 58 55 52 49 48 47 46 47 47 48 49 52
11 12 13 14 14 15 16 17 18 19 21 22 23 24 25 25 25 25 24 24 24 24 24 24 24 24 24 25 26 27 29 30 31 31 32 31 31 32 32 33 33 35 36 37 37 37 39 41 44 47 50 53 56 60 63 67 71 74 76 78 78 76 76 76 77 77 75 71 66 62 57 53 49 47 45 44 42 41 40 40 40 41 41 42 43
11 12 13 14 14 15 16 17 18 20 21 22 23 24 25 25 26 25 26 26 26 25 25 24 24 24 25 26 28 29 30 31 32 32 32 32 32 32 33 33 34 36 37 38 37 38 41 43 46 49 52 55 58 62 65 69 73 77 79 79 79 78 77 78 78 76 71 63 55 50 47 44 42 42 42 40 39 38 37 36 35 36 37 38 40
11 12 13 13 14 15 16 17 19 20 22 23 24 25 25 26 26 26 26 27 26 26 26 25 25 26 27 29 30 31 32 32 33 32 32 32 33 33 33 34 36 37 38 38 38 40 43 45 48 51 54 57 61 64 68 72 75 78 80 80 80 79 79 77 74 68 62 54 48 45 44 42 41 40 40 39 37 35 33 31 31 31 32 34 37
12 12 12 13 14 15 16 18 19 21 22 23 24 25 25 26 26 26 27 27 27 27 27 27 27 28 29 31 31 32 33 33 33 33 33 33 33 33 34 35 37 38 38 38 40 42 45 47 50 53 56 59 63 66 70 74 78 80 82 82 81 80 78 73 66 60 54 51 47 44 43 42 40 38 38 36 33 29 27 26 28 31 32 33 36
12 12 12 13 14 15 16 18 19 21 22 23 24 25 25 26 26 27 27 27 27 28 28 28 29 30 31 32 32 33 33 33 33 33 33 34 34 34 35 37 38 38 38 39 41 44 46 49 52 55 58 61 65 68 72 76 80 82 83 83 81 79 73 65 59 54 51 50 48 46 43 40 38 35 32 29 25 24 25 25 27 31 33 34 36
11 12 12 13 14 15 16 18 20 21 22 23 24 25 25 26 27 27 28 28 29 29 30 30 31 32 32 33 33 33 33 33 33 34 34 34 35 35 36 38 38 38 38 40 42 45 48 51 53 57 60 63 67 71 75 78 81 84 85 84 81 75 67 59 54 52 51 50 48 44 39 34 31 26 22 21 21 23 28 30 30 32 35 37 41
11 11 12 13 14 15 16 18 20 21 22 23 24 25 25 26 27 28 28 29 30 30 31 32 32 33 33 33 33 33 33 33 34 34 35 35 35 36 38 39 39 38 39 41 43 46 49 52 55 58 62 65 69 74 78 81 84 85 86 84 79 70 61 56 53 52 51 48 43 36 29 23 20 17 16 19 22 26 30 34 36 38 40 42 44
11 11 12 13 14 15 17 19 20 21 22 23 23 25 26 27 27 28 29 30 31 31 32 32 33 33 33 34 33 33 33 34 34 35 35 36 36 37 38 39 39 39 40 42 44 47 50 53 56 59 63 67 71 75 79 82 85 87 86 82 75 66 59 55 54 54 49 41 32 24 17 14 13 14 17 21 25 28 32 36 39 41 44 45 45
11 11 12 13 14 15 17 19 20 21 22 22 23 25 26 27 27 28 29 31 31 32 33 33 33 34 34 34 34 34 34 34 35 36 36 36 36 38 39 39 39 39 40 42 45 48 51 54 57 60 64 68 72 76 80 83 85 86 84 78 71 64 59 56 56 52 41 29 22 17 13 12 15 17 20 24 27 30 34 37 41 43 46 49 47
11 11 12 13 14 15 17 18 20 21 21 22 23 25 25 26 27 29 30 31 32 32 33 34 34 35 35 34 34 34 34 35 35 36 37 36 37 38 39 39 39 39 41 43 46 49 52 55 58 61 65 69 73 77 81 83 85 84 81 73 65 61 59 58 56 47 31 20 17 16 15 16 19 21 23 26 29 32 34 36 38 39 40 41 38
11 11 12 13 14 15 17 18 19 20 21 22 23 24 25 26 27 29 30 31 32 33 34 34 35 35 35 35 35 34 35 35 36 37 37 36 37 38 39 40 39 40 42 44 46 49 53 56 59 62 65 69 73 78 81 83 84 83 78 69 61 58 58 58 54 40 24 17 17 19 21 21 21 25 27 28 29 29 28 28 31 35 37 37 33
11 12 12 13 14 15 17 18 19 20 21 22 23 24 25 26 27 29 30 31 32 33 34 35 35 35 35 35 35 35 35 36 36 37 37 36 37 38 40 40 40 40 42 44 47 50 53 57 60 63 66 70 74 78 81 84 84 83 76 66 59 57 57 56 51 34 19 16 19 23 26 26 26 28 28 27 28 24 22 27 35 40 43 43 38
11 12 13 13 14 15 17 18 19 20 21 22 23 24 25 26 27 28 29 31 33 34 35 35 35 35 35 35 35 35 36 36 37 37 37 36 37 39 40 41 41 41 42 45 47 50 54 57 60 63 67 70 74 78 82 84 84 82 74 63 57 56 55 54 47 32 18 16 21 25 27 28 28 28 26 25 25 22 24 32 38 41 43 46 44
12 12 13 14 15 16 17 18 19 20 21 22 23 23 24 25 27 28 29 31 33 34 35 35 35 35 35 35 36 36 36 36 37 37 37 37 38 39 41 41 41 41 43 45 48 51 54 57 60 64 67 71 75 79 82 84 85 81 73 62 56 55 53 50 42 30 20 19 21 25 27 28 29 26 23 23 23 22 27 34 39 41 40 41 42
12 12 13 14 15 16 17 18 19 20 21 22 23 23 24 25 26 28 29 31 33 34 35 35 35 35 35 36 36 36 36 36 37 37 37 37 38 40 42 42 42 42 43 45 48 51 54 58 61 65 68 71 75 78 82 84 85 81 73 62 55 53 52 47 37 25 20 21 23 24 27 28 28 25 22 22 22 24 28 33 39 41 37 35 36
12 13 13 14 15 16 17 19 19 20 21 22 23 23 24 25 26 27 29 31 33 34 35 35 35 36 36 36 36 36 36 36 37 37 37 37 39 41 42 43 42 42 43 45 48 51 54 58 61 65 68 71 75 78 82 84 84 82 73 62 55 52 51 47 36 23 19 21 23 24 26 27 28 26 23 21 22 25 28 30 36 39 35 32 31
13 13 14 15 16 17 18 19 19 20 22 22 23 23 24 25 26 27 29 30 32 34 35 35 36 36 36 37 37 37 36 37 37 37 37 37 39 41 43 43 43 43 44 46 48 52 55 57 60 64 68 71 74 78 81 84 84 82 74 63 55 52 50 48 39 24 17 19 21 22 24 26 27 28 26 23 21 25 28 28 31 33 31 29 28
13 14 14 15 16 17 18 19 19 20 22 23 23 23 24 25 26 27 28 30 32 33 34 35 36 36 37 37 37 37 37 37 37 37 37 37 39 42 44 44 43 43 44 46 48 52 55 58 60 64 67 71 74 77 81 84 85 82 75 64 56 52 50 49 43 30 18 17 19 22 23 24 25 27 28 26 23 25 27 28 29 28 26 25 25
14 14 15 16 16 17 18 19 19 21 22 23 23 23 24 24 25 26 28 29 31 33 34 35 36 37 37 37 37 37 37 37 37 37 37 37 39 42 44 44 44 44 45 46 49 51 55 57 60 63 66 70 74 77 80 84 85 82 76 66 58 54 51 49 46 36 23 17 18 21 23 24 24 26 28 28 26 25 26 26 28 27 23 22 22
15 15 16 16 17 18 19 19 20 21 22 23 23 23 23 24 25 26 28 29 31 32 34 35 36 37 37 38 37 38 38 38 38 37 37 37 39 41 44 45 45 45 45 46 49 51 54 57 59 62 66 69 73 76 79 83 84 82 77 68 59 55 52 49 47 40 28 20 19 20 22 23 23 24 25 27 27 26 24 24 25 25 23 21 21
16 16 16 17 18 19 19 19 20 21 22 23 23 23 23 24 25 26 27 29 30 32 33 35 36 37 37 38 38 38 38 38 38 38 37 37 38 41 44 45 45 46 46 47 48 51 53 56 59 62 65 68 72 75 78 82 83 82 78 70 60 55 52 50 48 42 30 22 20 20 21 22 22 23 24 24 25 24 21 20 21 21 21 20 20
16 16 17 18 18 19 19 19 20 21 23 23 23 23 24 24 25 26 27 28 30 31 33 34 36 36 37 38 38 38 39 39 39 38 37 37 38 40 43 45 46 46 46 47 48 50 53 56 58 61 64 67 71 74 77 81 83 82 79 71 62 55 52 50 48 43 32 22 20 20 20 21 21 22 23 23 23 22 19 18 19 19 18 18 18
16 17 18 18 19 19 19 19 20 22 23 24 24 24 24 24 25 25 27 28 29 31 32 34 35 36 37 38 38 38 39 39 39 39 38 37 38 40 43 45 46 47 47 47 48 51 53 55 58 60 63 66 70 73 77 80 82 82 78 73 64 57 53 50 48 45 34 22 19 20 20 21 22 21 21 22 22 21 19 19 20 19 17 17 17
17 17 18 19 19 19 19 20 21 22 23 24 24 24 24 24 25 25 27 28 29 30 32 33 35 36 37 38 38 39 40 40 40 39 38 38 38 40 43 45 47 47 47 48 48 50 53 55 58 60 63 65 68 72 75 78 81 81 78 74 68 60 54 50 48 46 37 24 17 18 20 21 23 23 21 21 20 19 18 18 20 21 19 17 16
18 18 19 19 19 19 19 20 21 22 23 24 25 25 25 24 25 25 26 28 29 30 31 33 34 36 37 38 38 39 40 40 40 40 39 38 38 40 42 45 46 47 47 47 48 50 52 55 58 60 62 64 66 70 73 76 79 80 78 75 70 62 55 51 48 47 41 28 17 16 19 21 23 23 21 19 19 19 18 17 18 19 19 17 14
19 19 19 19 19 20 20 21 21 22 23 24 25 25 25 25 25 25 26 27 28 30 31 32 34 35 36 37 38 39 40 41 41 40 39 39 39 40 42 44 46 46 47 47 48 50 52 55 57 59 61 63 65 68 72 75 78 79 78 76 72 65 57 53 49 47 44 33 19 14 16 20 22 23 21 19 18 18 19 19 18 17 18 17 14
20 20 20 20 20 20 21 22 22 22 23 24 25 26 26 25 25 26 26 27 28 29 30 32 33 35 36 37 38 39 40 40 41 40 40 39 39 40 41 44 45 46 47 48 48 49 51 54 56 58 60 62 63 66 69 73 75 78 78 76 73 67 60 54 50 48 46 38 24 14 13 16 20 22 21 18 17 18 18 18 18 17 16 16 15
21 21 20 20 21 21 22 22 23 23 24 24 25 26 26 26 26 26 26 27 28 29 30 31 33 34 36 37 38 39 39 40 41 41 40 39 39 39 41 43 45 46 47 47 48 48 50 52 55 58 59 61 62 64 67 70 73 76 77 76 73 69 62 56 51 48 47 42 31 17 11 12 16 19 20 18 17 17 17 17 17 17 16 14 14
22 22 22 22 22 22 22 23 24 24 24 25 25 26 26 26 26 26 27 27 28 28 30 31 32 34 35 37 38 38 39 40 41 41 40 39 39 39 40 42 44 45 46 47 47 47 49 51 54 57 58 60 61 62 64 67 70 73 76 76 74 71 65 58 53 49 47 45 37 24 13 10 12 15 18 18 17 17 17 16 17 17 16 14 12
23 22 22 23 23 23 23 24 24 25 25 25 26 27 27 27 27 27 27 27 27 28 29 30 32 33 35 36 37 38 39 40 41 41 40 40 39 39 40 41 43 45 45 47 47 47 48 50 53 56 58 59 60 61 63 65 68 71 74 75 74 72 68 61 55 50 48 47 42 30 17 10 9 12 15 18 19 18 18 18 17 16 14 12 10
24 23 23 23 23 24 24 25 25 25 26 26 26 27 27 27 27 27 27 27 27 28 29 30 31 33 34 35 37 38 38 39 40 41 40 40 39 38 39 41 42 44 45 46 47 47 47 48 51 54 57 58 60 61 62 64 66 69 72 74 74 73 70 64 57 52 49 48 44 36 23 11 8 10 13 16 19 20 19 18 18 16 13 10 9
25 24 24 24 24 24 25 25 26 26 26 27 27 28 28 28 28 28 27 27 27 27 28 29 31 32 33 35 36 37 38 39 40 40 40 40 39 38 39 40 42 43 44 45 47 47 46 47 49 53 55 57 59 60 61 62 64 67 70 72 73 73 71 67 61 54 50 48 46 41 30 16 8 9 11 14 17 20 20 20 19 17 13 10 8
25 25 25 25 25 25 25 26 27 27 27 27 28 28 29 28 28 28 28 28 27 27 28 29 30 31 33 34 35 37 37 38 39 40 40 40 39 38 38 39 41 42 44 45 46 47 46 46 48 51 54 56 58 59 60 61 62 64 67 70 72 73 72 69 64 57 52 48 46 44 37 23 11 8 10 12 15 19 21 21 20 19 15 11 9
26 26 27 27 27 27 26 27 27 27 28 28 29 29 29 29 29 29 28 28 27 27 27 28 29 31 32 33 35 36 37 38 38 39 40 40 39 38 38 38 40 41 43 44 45 46 46 46 47 49 52 55 57 58 59 60 61 62 65 67 70 71 72 71 67 60 54 49 47 45 41 31 17 9 9 11 14 18 21 21 21 20 17 13 10
27 27 28 28 28 28 28 28 28 28 28 29 30 30 30 30 30 29 29 28 28 27 27 28 29 30 31 32 34 35 36 37 37 38 39 39 39 38 38 38 38 40 42 43 44 46 46 45 46 48 51 54 56 58 59 60 60 61 63 65 68 70 71 71 69 64 57 52 48 45 43 37 25 13 9 10 12 16 19 20 21 21 18 15 12
27 27 28 29 29 29 29 29 29 29 29 30 30 30 31 31 31 30 30 29 28 28 27 27 28 29 30 32 33 34 35 36 37 37 38 39 39 38 38 37 38 39 41 42 43 45 46 45 45 46 49 52 55 57 58 59 59 60 61 63 65 68 70 71 70 67 61 55 50 46 44 41 32 19 11 9 11 13 16 19 20 21 20 17 14
29 28 28 29 30 30 30 30 30 30 30 31 31 31 32 32 31 31 31 30 29 28 28 27 28 28 30 31 32 34 35 35 36 36 37 38 38 38 38 37 37 38 39 41 42 44 45 45 44 45 47 50 53 55 57 58 59 59 60 61 63 65 67 69 70 69 65 59 53 48 45 42 37 27 16 10 10 12 14 16 18 20 20 18 15
30 30 30 30 30 30 30 31 31 32 32 32 32 32 33 32 32 32 32 31 30 29 29 28 28 28 29 30 32 33 34 35 35 36 36 37 38 38 38 37 37 37 38 40 41 42 44 45 44 44 45 48 51 54 56 57 58 59 59 59 60 63 65 67 69 70 68 62 56 51 46 43 40 34 23 13 10 10 12 14 16 18 19 19 17
31 31 32 32 32 31 30 31 32 33 33 33 33 33 33 33 32 32 33 32 31 30 29 29 28 28 29 29 31 32 34 34 35 35 35 36 37 37 38 37 37 36 37 38 40 41 43 44 44 43 44 46 49 52 54 56 57 58 58 58 59 60 63 65 67 69 69 65 60 54 49 45 42 39 31 20 12 10 11 13 15 17 19 20 19
33 32 32 33 33 31 30 30 32 33 33 34 34 34 34 33 33 33 33 33 32 31 30 29 29 29 29 29 30 32 33 34 34 34 35 35 36 36 37 37 37 36 36 37 38 40 42 43 44 43 43 44 47 50 52 54 56 57 58 58 57 58 60 63 65 67 68 67 63 58 52 47 43 41 37 29 18 10 9 12 14 16 18 19 19
35 34 33 33 33 33 31 31 32 33 33 34 35 35 34 34 34 34 34 33 33 32 31 30 30 29 29 29 29 31 32 34 34 34 34 34 35 36 36 37 36 36 36 36 37 39 40 42 43 43 43 43 45 47 50 52 54 55 57 57 56 57 58 60 63 65 66 67 65 61 55 50 45 42 40 35 26 16 9 10 13 15 17 19 19
37 36 34 34 34 34 33 32 32 33 34 35 36 35 35 34 35 35 34 34 34 33 32 31 30 30 29 29 29 30 32 33 33 33 33 34 34 35 35 36 36 36 35 35 36 38 39 40 42 43 43 43 43 45 48 50 52 54 56 56 56 55 56 58 60 63 64 66 66 63 59 54 49 44 41 39 34 24 14 9 10 13 15 17 19
39 38 36 35 35 35 35 34 34 34 35 36 36 35 35 35 35 35 35 35 34 34 33 32 31 30 30 30 29 29 31 32 33 33 33 33 33 34 34 35 36 36 36 35 35 37 38 39 41 42 43 42 42 43 45 48 50 51 54 55 55 54 54 55 57 60 62 64 65 64 61 57 52 47 42 39 37 32 22 13 9 9 12 15 17
41 39 38 37 36 36 36 36 36 36 36 36 36 36 35 35 36 36 36 35 35 35 34 34 33 31 30 30 30 30 30 32 33 33 32 33 33 33 33 34 35 35 35 35 35 36 37 38 39 41 42 42 41 41 43 45 47 49 52 54 54 54 53 54 55 57 60 62 63 63 62 59 55 51 46 41 38 36 30 21 12 7 8 11 13
44 42 41 39 38 37 36 37 38 38 38 38 37 37 36 36 37 37 36 36 36 36 35 35 34 33 31 30 30 30 30 31 33 33 32 32 32 32 32 33 34 35 35 35 35 35 36 37 38 39 41 41 40 40 41 43 45 47 49 52 53 53 53 52 53 55 57 59 61 62 62 60 57 54 49 44 40 37 34 28 19 11 6 7 10
46 45 44 42 41 40 38 37 38 39 40 40 39 38 38 38 38 37 37 37 37 37 36 35 35 34 33 31 30 30 30 31 32 33 32 32 32 32 32 32 32 33 34 35 35 35 35 36 37 38 39 40 40 39 39 41 43 45 47 49 51 52 52 51 51 52 54 56 58 60 60 60 58 56 52 48 42 38 35 32 27 18 10 6 7
48 47 46 45 44 42 40 38 38 39 40 41 41 40 40 39 39 38 38 38 38 38 37 36 36 35 34 33 31 31 30 31 32 33 33 32 31 31 31 31 31 32 33 34 34 34 35 35 35 36 38 39 39 38 38 39 40 42 44 47 49 51 51 51 51 51 52 53 55 57 59 59 58 57 55 50 45 40 36 33 31 26 17 10 7
49 48 48 48 46 45 44 42 40 39 39 40 41 42 42 41 40 40 39 39 39 39 38 37 37 36 36 34 32 31 31 30 31 33 33 32 31 31 31 30 30 31 32 33 33 33 34 34 34 35 36 38 38 38 37 37 38 40 42 45 47 49 50 50 50 50 50 51 53 54 56 58 58 57 56 53 49 44 39 34 32 30 24 16 9
51 49 48 48 48 47 46 46 44 41 39 38 40 42 44 43 42 42 41 41 40 39 38 38 37 37 36 35 34 33 31 31 31 32 33 32 31 30 30 29 29 30 31 32 32 33 33 34 33 34 35 36 37 37 37 36 37 38 40 42 44 46 48 49 49 49 50 50 50 52 54 55 56 57 57 55 52 47 42 37 33 30 28 23 14
Wind_Direction
337 329 330 336 339 340 343 346 345 343 340 340 342 344 346 347 348 347 346 343 341 341 341 340 339 337 337 337 336 334 333 332 331 330 330 330 330 330 330 329 329 329 329 329 329 330 329 329 329 329 328 328 328 327 326 325 324 323 323 322 321 318 316 313 311 309 306 303 301 300 297 296 294 292 290 288 286 283 280 278 275 272 269 265 262
331 331 335 339 342 344 346 346 344 342 341 343 345 346 347 348 349 348 347 345 343 343 341 339 337 336 335 335 333 332 332 332 332 333 333 333 333 332 332 332 332 332 332 332 332 331 331 331 331 331 330 330 330 329 328 327 326 326 326 325 323 320 317 314 312 309 306 305 303 302 300 298 297 295 292 290 287 285 282 279 276 273 270 267 264
332 334 338 342 346 348 347 345 344 344 344 346 346 347 348 349 349 348 347 346 346 344 341 339 337 336 334 333 332 332 333 334 335 335 335 335 335 334 334 334 334 334 334 333 333 332 332 332 332 332 332 331 330 330 329 329 329 329 329 327 324 321 318 315 312 310 309 309 307 305 303 301 299 297 295 292 290 287 284 281 277 274 271 268 265
335 337 340 344 348 349 346 345 346 346 346 347 347 347 349 349 349 348 347 347 347 345 342 340 338 336 333 332 333 334 335 337 337 338 337 337 337 336 336 336 335 335 335 334 333 333 333 333 333 333 332 331 330 330 331 332 332 332 331 328 325 322 318 316 315 314 314 314 313 309 306 304 302 299 296 293 291 288 285 281 277 274 271 269 266
334 337 341 346 349 347 345 346 348 348 347 347 347 348 349 348 347 346 347 347 347 345 343 342 339 337 335 335 336 337 338 339 339 339 339 339 338 338 337 337 337 336 335 334 334 334 333 334 334 333 332 332 332 333 334 335 335 334 332 329 326 323 320 319 319 319 319 319 317 313 310 307 304 301 297 295 292 289 286 282 279 276 274 274 273
331 337 344 348 348 345 345 348 349 348 348 348 348 348 348 347 346 346 347 347 346 346 346 344 341 338 338 338 339 340 341 341 340 340 340 340 339 339 338 338 338 337 336 335 334 334 334 335 334 334 334 334 335 336 337 337 336 335 333 330 327 325 324 324 324 324 323 321 318 314 311 308 305 302 299 297 294 290 286 284 285 285 283 281 280
328 336 345 347 346 344 345 348 348 348 349 348 348 348 347 346 345 346 347 347 347 348 347 344 341 340 340 340 341 342 342 342 341 341 341 340 340 340 340 339 338 337 336 335 335 335 336 336 336 336 336 337 338 339 339 339 338 336 334 332 329 328 329 329 329 327 324 321 317 314 311 308 305 303 300 298 296 295 293 291 289 288 287 287 286
328 336 343 345 345 345 346 347 348 348 348 348 348 347 346 346 345 346 347 348 349 350 347 344 342 342 342 343 344 344 343 342 342 341 341 341 341 341 340 339 338 337 335 335 336 337 337 337 338 338 339 340 340 341 340 340 339 338 336 334 332 332 333 333 332 328 324 321 317 314 311 309 307 305 304 303 303 302 298 295 291 287 286 287 288
329 336 341 342 343 345 345 346 347 347 347 347 348 347 346 345 345 347 349 350 351 350 346 344 344 344 344 345 345 344 343 342 342 342 343 343 342 342 341 339 338 336 335 336 338 338 338 339 340 341 342 342 342 342 342 341 341 340 338 336 335 336 337 337 334 331 328 325 322 320 318 316 313 313 313 309 306 303 298 295 292 289 288 287 285
328 334 338 340 341 343 344 345 345 346 346 346 347 346 345 344 345 348 351 352 352 349 346 346 346 346 347 347 346 344 343 343 343 344 344 344 343 342 341 339 337 336 337 338 339 339 340 341 342 343 344 344 344 344 343 343 343 341 339 338 338 339 340 340 337 335 334 333 333 335 337 334 328 322 318 312 308 305 301 298 296 294 291 287 283
327 332 334 336 339 341 343 344 344 344 344 345 346 345 344 344 347 350 353 353 351 349 348 348 348 348 348 347 346 344 343 344 345 346 345 344 344 342 341 339 337 337 338 339 339 340 342 343 344 345 345 345 346 345 345 345 344 343 341 340 340 340 342 342 341 341 343 346 351 360 3 347 334 328 322 318 316 312 309 306 303 300 296 292 288
325 328 330 333 337 340 341 342 342 342 342 344 344 343 342 344 348 352 354 353 351 349 349 349 349 350 349 347 345 344 345 346 347 347 346 344 344 343 341 339 337 337 338 339 340 342 343 345 345 346 347 347 347 347 347 347 346 345 343 343 342 342 343 344 345 346 352 4 8 6 1 347 338 334 328 325 324 321 319 317 316 315 314 311 307
321 323 327 331 335 338 340 340 339 339 340 342 342 341 342 345 350 353 354 353 351 350 350 350 350 350 349 347 346 346 347 348 348 347 345 344 344 343 342 340 338 338 339 340 342 343 345 346 347 348 348 348 349 349 349 349 349 347 346 345 344 344 345 346 347 350 359 11 9 359 353 348 342 338 334 333 334 331 331 339 347 349 348 344 338
317 320 325 330 333 336 337 336 335 336 338 340 339 340 342 347 351 353 353 352 351 351 351 351 351 350 348 347 347 348 349 348 348 347 345 344 344 344 343 341 339 338 340 341 343 345 346 347 348 349 349 350 350 351 351 351 351 349 348 347 346 347 347 347 349 353 360 3 2 356 349 346 343 340 340 341 341 340 344 356 3 5 6 6 1
314 318 324 328 331 332 333 332 332 334 336 337 337 339 343 348 350 352 352 351 351 351 352 352 351 350 348 348 349 349 349 348 347 346 344 345 345 345 344 341 339 339 340 342 344 346 348 349 349 350 350 351 351 352 353 353 353 352 350 349 349 349 349 348 348 353 359 358 357 352 345 344 344 343 346 349 346 341 343 351 357 1 6 12 13
310 316 322 325 327 329 329 329 329 332 334 334 336 340 344 347 349 350 351 351 351 352 353 353 351 350 349 350 350 350 350 348 346 345 345 345 346 346 344 342 340 340 342 344 346 348 349 350 351 351 352 352 353 353 354 355 355 354 352 351 351 351 351 349 347 349 355 353 350 347 344 347 350 351 353 355 350 341 340 349 358 0 3 9 14
308 313 319 321 322 325 326 325 327 330 332 333 336 340 343 346 348 349 349 350 351 352 353 352 351 350 350 351 351 351 350 348 346 345 345 346 347 347 345 343 342 342 343 345 347 349 350 351 352 353 353 353 354 355 355 356 357 356 354 354 353 353 353 352 347 343 345 345 343 344 346 349 356 358 358 357 352 343 344 356 5 8 10 12 11
305 311 316 317 319 322 322 322 325 328 330 333 336 339 342 344 346 347 348 350 351 352 353 352 352 352 352 352 352 351 349 347 345 345 346 347 348 348 346 344 344 344 344 346 348 350 351 352 353 354 354 354 355 356 356 357 358 357 357 356 355 354 355 355 350 338 336 342 343 344 347 351 359 1 359 358 353 345 346 358 9 15 21 21 16
303 308 312 314 316 318 318 319 324 328 330 333 335 338 340 342 344 346 348 349 350 352 353 353 353 353 353 353 352 351 349 347 346 346 347 348 349 349 347 345 345 345 346 347 349 351 352 352 353 354 355 356 356 357 357 358 359 359 358 358 357 356 356 357 355 344 329 333 339 344 348 353 360 2 0 360 356 347 345 352 3 16 27 28 24
301 305 308 310 313 314 314 317 323 328 330 332 333 336 338 340 342 345 347 348 349 351 352 353 354 354 353 353 352 350 348 347 346 347 348 349 350 349 348 347 346 346 347 348 350 351 352 353 354 355 356 357 357 358 359 359 360 0 360 359 359 359 358 358 358 352 334 326 337 346 350 353 359 3 3 2 358 351 348 349 353 5 23 31 27
299 301 304 307 310 311 312 317 324 328 329 330 331 334 336 337 340 344 346 347 348 350 352 354 355 354 354 353 352 350 348 347 347 347 348 349 350 350 349 348 347 348 349 350 351 352 352 353 354 356 357 357 358 359 359 0 1 2 1 360 360 0 0 359 359 356 346 334 338 346 349 352 357 2 4 3 360 353 348 348 350 356 10 25 27
296 298 301 305 307 307 310 318 325 328 327 326 328 332 333 335 339 343 345 345 347 349 352 354 355 355 354 353 352 350 348 348 348 348 349 350 351 351 350 349 348 349 350 350 352 353 353 353 355 356 357 358 359 360 0 1 2 3 2 2 1 1 1 360 359 358 353 343 340 343 347 351 355 358 1 2 1 358 349 343 347 353 359 7 14
294 297 300 303 304 305 311 320 326 325 324 324 326 329 331 334 338 342 343 344 346 349 352 355 355 355 354 353 352 350 349 348 348 349 349 350 351 351 351 350 350 350 351 351 353 353 353 354 355 356 358 359 360 0 1 2 3 4 4 4 3 1 0 0 0 359 355 346 343 344 346 350 352 355 358 358 359 0 353 343 344 351 354 357 3
293 296 298 300 302 305 313 322 324 322 321 322 324 326 329 333 337 340 341 342 345 349 352 355 355 355 354 354 353 351 350 349 349 349 350 350 351 351 351 351 351 351 351 352 353 354 354 355 356 356 358 360 0 1 2 3 4 5 5 5 4 2 1 1 2 1 357 349 347 349 351 352 351 350 351 352 354 356 355 350 348 350 353 358 6
292 294 296 298 302 308 315 320 320 319 319 320 321 324 327 331 336 338 339 341 344 348 352 354 354 354 354 354 353 352 350 350 349 350 350 350 351 352 352 352 352 351 352 353 354 355 355 355 356 357 359 0 1 2 3 4 5 6 6 5 5 4 3 3 3 2 360 352 348 354 358 358 356 351 348 349 352 354 355 353 354 355 353 357 8
291 292 294 298 303 309 314 317 317 317 318 318 319 322 325 330 334 336 337 340 343 347 351 352 353 354 354 353 353 352 351 350 350 350 350 350 351 352 353 353 353 352 353 353 354 355 356 356 357 358 359 1 2 3 3 5 6 7 7 6 6 5 4 4 4 4 2 355 348 356 4 4 360 356 352 352 354 358 358 355 356 360 358 355 3
290 292 295 299 304 309 311 312 314 315 316 317 318 320 324 328 332 334 335 338 341 345 349 351 352 353 353 353 353 352 352 351 351 351 351 351 352 352 353 354 353 353 353 354 355 356 357 357 358 359 360 1 3 3 4 5 6 7 8 8 7 6 5 5 5 6 5 0 352 356 6 7 3 360 358 357 359 1 3 0 357 0 3 1 2
291 293 296 300 304 307 308 309 311 313 315 316 317 319 322 326 329 331 333 336 339 343 347 349 350 351 352 352 352 352 352 351 351 351 351 351 352 353 354 354 354 353 354 355 355 356 358 358 359 360 0 2 3 4 4 5 7 8 9 9 8 7 6 6 6 6 6 4 356 352 2 6 4 2 2 2 2 2 3 4 1 360 4 8 9
293 294 297 299 302 304 305 306 308 311 313 315 316 318 321 324 327 329 331 334 337 341 344 346 348 350 351 352 352 352 352 351 351 351 351 351 352 353 354 354 354 354 354 355 356 357 358 359 360 0 1 2 4 5 5 6 7 8 9 10 9 8 8 7 6 7 8 7 0 348 352 0 1 2 2 1 2 4 2 2 3 1 1 6 11
295 296 297 298 299 301 303 305 306 309 311 313 315 317 319 322 324 326 328 331 334 338 341 344 346 348 349 351 352 352 352 351 351 351 351 351 352 352 354 354 354 355 355 355 356 356 358 359 0 1 2 3 4 5 6 6 7 8 9 10 11 10 9 8 8 8 9 9 5 355 342 347 354 1 4 1 359 1 1 359 0 1 358 358 4
296 296 296 296 297 299 301 303 305 307 310 312 314 316 318 319 321 323 325 328 331 335 338 341 343 345 347 349 350 351 351 351 351 351 351 351 351 352 353 354 355 355 355 355 356 356 357 359 1 2 3 4 5 6 7 7 7 8 9 11 12 11 10 9 9 9 9 10 10 4 350 339 346 357 6 7 1 358 357 355 354 354 353 348 349
295 295 295 295 296 297 299 301 303 305 308 310 313 315 316 317 319 320 322 324 328 331 335 338 340 343 345 347 349 350 351 351 351 351 351 351 351 351 352 354 354 355 355 355 356 356 356 358 1 2 3 4 5 6 7 8 8 8 9 11 12 12 12 11 10 10 10 11 12 10 1 348 347 356 4 10 8 2 357 355 353 351 348 342 333
293 294 294 294 295 296 297 299 301 303 306 308 310 312 314 315 316 317 319 321 324 328 331 334 337 340 343 345 347 349 350 351 351 351 351 350 350 350 352 353 354 355 355 355 356 356 356 358 0 3 4 5 5 6 7 8 8 9 9 11 12 13 13 12 11 11 11 12 13 13 10 0 351 356 2 9 12 8 2 359 358 355 351 343 327
292 293 294 294 294 295 295 296 299 302 304 306 308 310 311 313 314 315 316 318 321 324 328 331 334 337 340 342 345 347 349 350 350 351 351 350 350 349 350 352 353 354 355 355 355 355 356 357 360 2 4 5 5 6 7 8 9 9 9 10 12 14 14 14 13 12 12 12 13 14 14 10 357 353 359 6 11 11 9 5 1 359 358 352 338
292 293 294 294 294 294 294 295 297 300 302 304 306 308 309 310 312 313 314 315 318 321 324 328 331 334 337 340 342 344 347 348 349 351 351 351 349 349 349 350 352 353 354 355 355 355 355 357 359 2 4 5 5 6 7 8 9 10 10 10 12 14 15 15 14 13 13 13 13 14 16 15 8 353 355 1 8 12 11 7 3 3 3 359 351
291 292 292 293 294 294 295 295 296 298 300 302 303 305 307 308 309 311 312 313 315 317 321 324 328 331 334 337 339 342 344 346 348 349 350 351 350 348 348 349 351 352 353 354 355 355 355 356 358 1 3 5 5 6 7 8 9 10 10 11 12 14 15 16 15 15 14 14 14 15 16 17 15 3 352 357 6 11 10 6 5 6 8 8 5
289 290 291 292 293 294 295 295 296 297 298 299 301 303 304 306 307 309 309 310 312 314 317 321 324 327 331 334 337 339 341 344 346 348 349 350 349 348 347 348 349 350 352 354 355 355 355 356 358 0 3 4 5 6 7 8 9 10 10 11 12 13 15 16 16 16 15 15 15 15 17 17 17 11 356 355 4 10 9 7 6 8 11 14 14
288 289 289 290 292 293 294 295 296 296 296 297 299 300 301 303 305 307 308 308 310 311 314 317 321 324 327 330 333 336 338 341 344 346 348 349 349 348 347 347 348 349 351 353 354 355 355 355 357 359 2 4 5 6 6 7 9 10 10 11 11 13 15 16 17 17 16 16 16 16 17 18 18 15 5 358 3 7 8 9 8 9 12 16 15
289 288 288 289 290 292 293 294 295 295 294 295 297 297 298 301 303 304 305 307 307 309 311 313 317 320 324 327 329 332 335 338 342 345 346 347 348 348 347 347 347 348 349 351 354 355 355 355 356 358 1 3 5 5 6 7 8 9 10 10 11 13 14 16 16 17 17 17 17 17 17 18 18 16 10 2 3 5 7 9 11 11 13 15 14
289 289 288 288 289 290 291 292 292 292 292 293 294 294 296 298 301 302 303 304 305 306 308 310 313 316 320 323 326 328 331 335 339 342 345 345 346 347 347 346 346 347 348 350 353 355 355 354 355 357 -0 2 4 5 6 7 8 9 10 10 11 12 14 15 16 17 18 18 18 18 18 18 19 19 15 7 3 5 4 6 12 15 15 15 15
286 287 287 287 288 288 289 289 289 289 290 291 291 292 294 296 298 299 300 302 304 304 305 307 309 312 316 319 322 325 328 331 335 339 342 344 344 346 347 346 346 346 347 348 351 354 354 354 355 356 359 1 3 5 5 7 8 8 9 9 10 12 13 15 16 16 17 18 19 19 18 18 19 20 18 13 7 5 5 4 9 16 18 17 17
284 284 284 285 286 287 287 286 286 287 288 288 289 290 292 294 295 296 298 300 301 302 303 304 306 309 312 316 319 321 324 327 332 336 339 342 343 345 346 346 345 345 346 347 349 352 354 354 354 355 358 0 2 4 5 6 7 8 8 8 9 11 13 14 15 16 17 18 19 19 19 18 19 20 20 18 14 7 5 5 7 12 17 18 18
283 283 282 283 285 286 285 284 284 284 285 285 286 288 291 292 293 294 296 298 299 300 301 302 303 305 308 312 315 318 320 323 328 332 336 339 341 343 345 345 345 344 345 346 347 350 352 353 353 354 356 359 1 3 5 6 7 8 8 8 8 10 12 14 15 16 16 17 18 20 20 19 19 19 20 21 19 15 11 10 8 8 11 16 18
287 287 286 284 284 284 284 283 282 282 282 283 284 287 289 290 290 292 293 295 297 298 298 299 300 302 304 308 311 314 316 319 323 328 332 336 339 341 343 344 344 344 344 344 346 348 350 352 352 352 355 357 360 2 4 6 7 8 8 7 7 9 11 13 14 15 16 16 18 19 20 20 20 19 19 20 21 20 19 18 14 9 7 11 14
289 290 290 288 285 284 284 284 282 281 281 281 283 285 286 287 288 289 291 293 294 295 296 297 298 299 301 303 307 310 313 315 319 324 328 332 336 339 340 342 343 343 343 343 344 346 348 351 351 351 353 355 358 0 3 5 7 8 8 7 7 8 10 12 13 15 15 16 17 19 20 20 20 20 20 20 21 21 21 22 21 15 11 10 10
285 287 288 288 287 286 284 284 283 282 281 281 282 283 284 284 285 287 289 291 292 293 294 295 296 296 297 300 303 306 309 311 315 319 324 329 333 336 338 340 342 342 342 342 343 345 347 349 350 350 351 353 356 359 1 3 6 8 8 7 6 7 9 11 13 14 15 15 16 17 19 20 21 21 20 20 20 21 22 22 23 21 17 15 12
282 283 284 285 286 285 284 283 283 282 281 281 281 281 282 282 283 285 287 288 289 290 292 293 294 294 295 296 299 302 305 307 311 315 320 325 329 332 335 338 340 341 341 341 342 343 345 347 349 349 349 351 354 357 359 1 4 7 8 7 6 7 8 10 12 13 14 15 15 16 18 20 21 22 21 20 20 21 21 22 23 24 23 21 18
279 280 281 282 283 283 283 283 282 282 282 281 281 280 281 281 282 283 284 286 287 288 289 291 292 292 293 293 295 298 301 304 306 310 315 321 325 329 332 335 337 339 339 339 341 342 343 345 347 347 347 349 352 355 357 359 2 5 7 7 6 6 8 10 12 13 13 14 14 15 16 18 21 22 22 21 20 20 21 21 22 22 23 22 20
278 278 278 279 279 280 280 280 280 281 282 282 281 280 280 280 280 281 281 282 284 286 287 289 289 290 291 291 292 294 297 300 303 306 311 316 321 325 329 332 335 336 337 338 339 340 341 343 345 346 346 348 350 353 355 357 359 3 6 7 6 6 7 9 11 12 13 13 14 14 15 17 19 22 23 22 21 20 20 21 21 22 22 20 15
277 277 276 276 277 277 277 278 278 278 279 281 282 282 280 280 279 279 279 280 281 283 285 286 287 288 289 289 289 290 293 296 299 302 306 311 316 320 325 329 333 334 335 336 337 339 340 342 343 344 344 346 348 351 353 355 357 0 4 6 6 5 6 8 10 12 12 12 13 13 14 15 17 20 22 23 23 22 20 20 21 22 22 20 15
275 275 275 275 276 276 276 276 276 276 276 278 280 282 282 280 279 278 277 278 279 281 282 283 284 286 287 287 287 288 289 292 295 298 301 306 311 315 320 326 330 331 332 334 335 337 339 340 341 341 342 344 346 349 351 353 355 357 1 4 5 5 5 7 9 11 11 11 12 12 13 13 15 18 21 23 24 23 22 21 21 22 22 22 20
Height
5799 5797 5795 5793 5792 5790 5788 5786 5785 5783 5781 5780 5777 5775 5773 5770 5768 5765 5763 5761 5759 5756 5754 5752 5749 5747 5744 5742 5739 5737 5734 5731 5729 5726 5723 5720 5717 5713 5710 5707 5704 5701 5698 5695 5691 5688 5684 5680 5677 5673 5669 5664 5659 5654 5648 5642 5635 5628 5620 5612 5603 5593 5584 5575 5567 5563 5556 5546 5539 5533 5525 5519 5515 5512 5508 5505 5503 5501 5500 5499 5498 5499 5500 5501 5502
5797 5796 5794 5792 5791 5789 5787 5786 5784 5782 5780 5778 5776 5774 5772 5769 5767 5764 5762 5760 5757 5755 5753 5750 5748 5745 5743 5740 5738 5735 5732 5730 5727 5723 5720 5717 5714 5710 5707 5704 5701 5698 5694 5691 5687 5684 5681 5677 5673 5669 5664 5659 5653 5647 5641 5635 5627 5619 5611 5601 5592 5582 5572 5563 5555 5548 5543 5536 5526 5519 5512 5505 5501 5498 5495 5493 5491 5490 5489 5488 5487 5487 5487 5488 5489
5796 5794 5793 5791 5790 5788 5786 5785 5783 5781 5779 5777 5775 5773 5771 5768 5766 5763 5761 5759 5756 5754 5752 5749 5747 5744 5741 5739 5736 5733 5730 5727 5724 5720 5717 5714 5711 5707 5704 5701 5698 5694 5691 5688 5684 5680 5677 5673 5668 5664 5659 5654 5648 5642 5635 5628 5620 5611 5601 5591 5581 5571 5561 5551 5542 5534 5528 5522 5514 5506 5500 5495 5491 5488 5485 5484 5482 5481 5480 5479 5478 5478 5478 5478 5479
5795 5794 5792 5790 5789 5787 5786 5784 5782 5780 5778 5776 5774 5772 5770 5767 5765 5763 5760 5758 5755 5753 5751 5748 5745 5742 5740 5737 5734 5731 5728 5724 5721 5718 5714 5711 5708 5705 5701 5698 5695 5691 5688 5684 5681 5677 5673 5669 5664 5659 5654 5649 5643 5637 5629 5621 5612 5602 5592 5581 5570 5560 5550 5540 5530 5520 5513 5508 5503 5495 5490 5487 5484 5481 5478 5476 5475 5474 5473 5472 5471 5471 5470 5470 5470
5794 5793 5791 5790 5788 5786 5785 5783 5781 5779 5777 5775 5773 5771 5769 5766 5764 5762 5760 5757 5754 5752 5749 5746 5743 5741 5739 5735 5732 5729 5725 5722 5718 5715 5712 5709 5705 5702 5699 5695 5692 5688 5685 5681 5677 5673 5669 5665 5660 5655 5649 5644 5637 5630 5622 5613 5603 5593 5582 5571 5560 5549 5539 5528 5518 5509 5501 5497 5493 5488 5483 5479 5477 5474 5471 5470 5469 5468 5467 5466 5465 5464 5464 5463 5462
5793 5792 5790 5789 5787 5786 5784 5782 5780 5778 5776 5774 5772 5770 5768 5766 5764 5761 5759 5756 5754 5751 5747 5745 5742 5740 5737 5733 5730 5726 5723 5719 5716 5713 5710 5706 5703 5700 5696 5693 5689 5685 5682 5678 5674 5670 5665 5661 5656 5650 5644 5638 5631 5624 5615 5606 5595 5585 5574 5562 5550 5539 5528 5518 5508 5500 5494 5488 5484 5481 5477 5473 5471 5468 5465 5463 5463 5462 5462 5461 5460 5458 5457 5456 5455
5792 5791 5790 5788 5787 5785 5783 5781 5779 5778 5776 5774 5772 5770 5768 5765 5763 5760 5758 5755 5752 5749 5746 5743 5741 5738 5735 5731 5728 5724 5721 5717 5714 5711 5707 5704 5700 5697 5693 5690 5686 5682 5678 5675 5671 5666 5662 5657 5651 5645 5639 5632 5625 5617 5608 5599 5588 5576 5564 5552 5540 5529 5519 5510 5501 5494 5488 5482 5477 5473 5470 5467 5464 5462 5460 5458 5458 5458 5457 5457 5456 5453 5450 5449 5448
5791 5790 5789 5787 5786 5784 5782 5781 5779 5777 5775 5773 5771 5769 5767 5765 5762 5759 5757 5754 5750 5747 5745 5742 5739 5736 5733 5729 5726 5722 5719 5715 5712 5709 5705 5702 5698 5695 5691 5687 5684 5680 5676 5672 5668 5663 5658 5653 5647 5640 5633 5626 5618 5609 5600 5591 5580 5568 5555 5542 5531 5520 5511 5503 5496 5489 5482 5476 5470 5466 5463 5461 5458 5457 5457 5456 5456 5455 5453 5451 5450 5448 5445 5444 5441
5791 5789 5788 5786 5785 5783 5781 5780 5778 5776 5774 5773 5771 5769 5766 5764 5761 5758 5755 5752 5748 5746 5744 5741 5738 5734 5731 5727 5723 5720 5717 5714 5710 5707 5703 5700 5696 5692 5689 5685 5681 5677 5673 5669 5665 5660 5655 5649 5642 5635 5628 5620 5611 5602 5592 5581 5570 5558 5546 5534 5522 5513 5506 5498 5491 5484 5476 5469 5464 5460 5458 5456 5455 5455 5455 5454 5454 5452 5449 5446 5444 5441 5439 5437 5435
5790 5788 5787 5786 5784 5782 5781 5779 5777 5776 5774 5772 5770 5768 5766 5763 5760 5757 5753 5750 5747 5745 5742 5739 5736 5732 5729 5725 5722 5719 5715 5712 5708 5705 5701 5697 5694 5690 5686 5683 5679 5675 5671 5666 5662 5657 5651 5645 5639 5632 5624 5616 5607 5596 5585 5574 5561 5548 5536 5523 5513 5506 5500 5494 5486 5478 5470 5464 5459 5457 5456 5455 5454 5454 5454 5453 5451 5449 5445 5441 5438 5434 5430 5427 5426
5789 5787 5786 5785 5783 5782 5780 5778 5777 5775 5773 5771 5769 5767 5765 5762 5759 5755 5752 5749 5746 5744 5741 5738 5734 5730 5727 5723 5720 5717 5714 5710 5707 5703 5699 5695 5692 5688 5685 5681 5677 5673 5668 5664 5659 5654 5648 5642 5635 5628 5620 5612 5602 5592 5581 5569 5556 5543 5529 5516 5506 5499 5494 5489 5481 5473 5467 5462 5459 5457 5456 5456 5455 5454 5453 5451 5448 5445 5441 5437 5432 5427 5420 5414 5412
5788 5787 5785 5784 5782 5781 5779 5777 5776 5774 5772 5771 5768 5766 5764 5761 5757 5754 5750 5748 5745 5743 5739 5736 5732 5729 5725 5722 5719 5715 5712 5708 5705 5701 5697 5694 5690 5687 5683 5679 5675 5671 5666 5662 5656 5651 5645 5638 5631 5624 5616 5608 5599 5588 5577 5565 5552 5539 5526 5514 5504 5496 5489 5484 5477 5471 5466 5463 5460 5458 5457 5456 5455 5453 5451 5448 5446 5441 5437 5432 5426 5419 5411 5402 5397
5787 5786 5784 5783 5781 5780 5778 5777 5775 5773 5772 5770 5768 5765 5763 5759 5756 5752 5749 5747 5744 5741 5738 5734 5730 5727 5724 5721 5717 5714 5710 5706 5703 5699 5696 5692 5689 5685 5681 5677 5673 5668 5664 5659 5653 5648 5642 5635 5628 5621 5613 5605 5595 5585 5574 5562 5549 5535 5523 5512 5503 5494 5487 5481 5475 5469 5466 5463 5461 5459 5457 5456 5454 5452 5449 5446 5442 5438 5433 5429 5422 5413 5405 5396 5388
5786 5785 5783 5782 5780 5779 5777 5776 5774 5773 5771 5769 5767 5764 5761 5758 5754 5751 5748 5746 5743 5740 5736 5732 5729 5725 5722 5719 5716 5712 5708 5704 5701 5698 5694 5691 5687 5683 5679 5675 5671 5666 5662 5656 5651 5645 5639 5632 5625 5618 5610 5602 5593 5582 5571 5559 5546 5533 5520 5510 5501 5493 5486 5479 5474 5469 5466 5464 5462 5460 5457 5455 5453 5450 5447 5443 5440 5435 5431 5426 5419 5412 5403 5394 5386
5785 5783 5782 5781 5779 5778 5776 5775 5773 5772 5770 5768 5766 5763 5760 5756 5753 5750 5748 5745 5742 5738 5735 5731 5727 5724 5721 5718 5714 5710 5706 5703 5699 5696 5693 5689 5685 5681 5677 5673 5669 5664 5659 5654 5648 5642 5636 5629 5622 5615 5607 5598 5589 5579 5568 5557 5544 5531 5519 5509 5500 5492 5485 5478 5472 5469 5467 5464 5462 5460 5457 5455 5452 5448 5445 5441 5437 5432 5427 5422 5416 5410 5403 5395 5388
5784 5782 5781 5779 5778 5777 5775 5774 5772 5770 5769 5767 5764 5761 5758 5755 5752 5749 5747 5744 5740 5737 5733 5729 5726 5723 5720 5716 5712 5708 5704 5701 5698 5695 5691 5687 5683 5679 5675 5671 5666 5662 5657 5652 5646 5640 5633 5627 5620 5612 5604 5595 5586 5576 5565 5554 5542 5530 5518 5508 5500 5492 5484 5477 5471 5468 5466 5464 5462 5460 5457 5454 5451 5447 5443 5440 5435 5430 5426 5421 5416 5410 5404 5399 5393
5782 5781 5780 5778 5777 5776 5774 5773 5771 5769 5767 5765 5763 5760 5757 5754 5751 5748 5745 5742 5739 5736 5732 5728 5725 5722 5718 5714 5710 5706 5703 5699 5696 5693 5689 5685 5681 5677 5673 5669 5664 5659 5654 5649 5644 5637 5631 5624 5617 5609 5601 5592 5584 5574 5564 5552 5541 5529 5518 5508 5499 5492 5485 5478 5471 5468 5466 5464 5462 5459 5456 5453 5450 5446 5443 5439 5434 5430 5426 5422 5418 5412 5406 5402 5397
5781 5779 5778 5777 5776 5774 5773 5772 5770 5768 5766 5764 5761 5758 5756 5752 5750 5747 5744 5741 5738 5734 5731 5727 5723 5720 5716 5712 5708 5705 5701 5698 5695 5691 5687 5683 5679 5675 5671 5666 5662 5657 5652 5647 5641 5635 5629 5622 5614 5607 5599 5591 5582 5572 5562 5551 5540 5529 5518 5508 5499 5492 5486 5479 5473 5469 5466 5463 5461 5458 5456 5452 5449 5446 5443 5439 5434 5430 5426 5423 5420 5415 5410 5406 5402
5779 5778 5777 5776 5774 5773 5772 5770 5768 5766 5764 5762 5760 5757 5754 5751 5748 5746 5743 5740 5736 5733 5729 5726 5722 5718 5714 5710 5707 5703 5700 5696 5693 5689 5685 5681 5677 5673 5669 5664 5659 5654 5649 5644 5638 5633 5627 5620 5613 5606 5597 5589 5580 5571 5560 5550 5539 5528 5517 5508 5500 5493 5486 5480 5474 5469 5466 5463 5461 5458 5455 5452 5449 5446 5443 5439 5435 5431 5427 5424 5421 5418 5415 5411 5407
5778 5777 5775 5774 5773 5772 5771 5769 5767 5764 5762 5760 5758 5755 5753 5750 5747 5744 5741 5738 5735 5732 5728 5724 5720 5716 5712 5709 5705 5702 5698 5695 5691 5687 5684 5680 5675 5671 5667 5662 5657 5652 5647 5642 5636 5630 5624 5618 5611 5604 5595 5587 5578 5568 5558 5548 5538 5527 5516 5507 5500 5493 5485 5479 5473 5468 5465 5463 5460 5457 5455 5452 5449 5447 5443 5440 5437 5433 5429 5426 5423 5421 5419 5416 5413
5776 5775 5774 5773 5772 5770 5769 5767 5764 5762 5760 5758 5756 5754 5751 5749 5746 5743 5740 5737 5734 5730 5726 5722 5718 5715 5711 5707 5704 5700 5697 5693 5689 5686 5682 5678 5674 5670 5665 5661 5656 5651 5645 5640 5634 5629 5622 5616 5609 5602 5594 5586 5577 5567 5558 5547 5536 5525 5515 5506 5497 5490 5484 5478 5472 5467 5464 5461 5459 5457 5455 5452 5450 5447 5444 5441 5438 5434 5431 5428 5425 5424 5422 5420 5417
5775 5774 5772 5771 5770 5769 5767 5765 5762 5760 5758 5757 5755 5752 5750 5747 5744 5741 5738 5735 5732 5729 5725 5721 5717 5713 5710 5706 5702 5699 5695 5691 5688 5684 5680 5676 5672 5668 5664 5659 5654 5649 5644 5638 5633 5627 5621 5615 5608 5601 5593 5585 5576 5567 5557 5547 5536 5525 5515 5505 5495 5488 5483 5477 5472 5467 5463 5460 5458 5456 5454 5452 5450 5448 5445 5443 5440 5436 5433 5430 5427 5426 5424 5422 5420
5773 5772 5771 5769 5768 5767 5765 5762 5760 5758 5757 5755 5753 5750 5748 5745 5743 5740 5737 5734 5731 5727 5723 5719 5716 5712 5708 5705 5701 5697 5694 5690 5686 5683 5679 5675 5671 5667 5663 5658 5653 5648 5642 5637 5632 5626 5620 5614 5607 5600 5592 5584 5575 5566 5556 5546 5537 5526 5515 5504 5495 5489 5484 5478 5472 5466 5462 5460 5458 5456 5454 5452 5450 5448 5446 5444 5441 5438 5435 5432 5430 5428 5426 5424 5422
5771 5770 5769 5768 5767 5765 5762 5760 5758 5756 5755 5753 5751 5749 5746 5744 5741 5738 5735 5732 5729 5725 5721 5718 5714 5711 5707 5704 5700 5696 5693 5689 5685 5681 5677 5673 5669 5665 5661 5656 5651 5646 5641 5636 5631 5625 5619 5613 5606 5599 5592 5583 5575 5566 5556 5547 5537 5526 5514 5505 5497 5491 5485 5479 5472 5467 5463 5460 5457 5456 5454 5452 5450 5448 5446 5444 5441 5439 5436 5434 5432 5430 5428 5426 5424
5769 5768 5767 5766 5764 5762 5760 5758 5756 5755 5753 5751 5749 5747 5744 5742 5739 5736 5733 5731 5727 5724 5720 5716 5713 5710 5706 5703 5699 5695 5692 5688 5684 5680 5676 5672 5668 5664 5660 5655 5650 5645 5640 5634 5629 5623 5617 5611 5605 5599 5591 5583 5574 5565 5555 5546 5536 5526 5516 5508 5500 5493 5486 5480 5474 5468 5463 5460 5458 5456 5454 5452 5450 5448 5446 5444 5441 5439 5436 5434 5432 5431 5429 5428 5427
5767 5766 5765 5763 5762 5760 5758 5756 5754 5753 5751 5749 5747 5745 5742 5739 5737 5734 5731 5729 5725 5722 5718 5715 5712 5708 5705 5701 5698 5694 5690 5686 5682 5678 5674 5670 5666 5662 5658 5653 5648 5643 5638 5633 5627 5622 5617 5611 5604 5597 5589 5581 5573 5565 5556 5546 5537 5528 5518 5509 5501 5494 5487 5482 5476 5470 5465 5461 5458 5457 5454 5452 5450 5448 5446 5444 5442 5440 5437 5435 5433 5432 5431 5429 5429
5765 5764 5762 5761 5759 5757 5755 5754 5752 5751 5749 5747 5745 5743 5740 5737 5735 5732 5729 5727 5724 5720 5717 5714 5710 5707 5704 5700 5696 5693 5689 5685 5681 5677 5673 5669 5665 5661 5657 5652 5647 5642 5637 5632 5627 5621 5615 5609 5602 5595 5588 5581 5574 5565 5557 5548 5539 5529 5520 5511 5502 5495 5488 5483 5477 5471 5466 5462 5459 5457 5455 5453 5451 5449 5446 5444 5442 5440 5439 5437 5435 5434 5432 5431 5430
5762 5761 5759 5758 5756 5755 5753 5752 5750 5748 5747 5745 5742 5740 5738 5735 5732 5730 5728 5725 5722 5719 5715 5712 5709 5706 5702 5699 5695 5692 5688 5684 5680 5676 5672 5668 5664 5660 5655 5651 5646 5641 5636 5631 5625 5620 5614 5608 5602 5595 5589 5581 5573 5565 5557 5549 5540 5531 5523 5513 5505 5497 5490 5484 5478 5473 5467 5462 5459 5458 5456 5454 5452 5450 5447 5445 5443 5442 5440 5438 5436 5435 5434 5433 5432
5760 5758 5757 5755 5754 5752 5751 5749 5748 5746 5744 5742 5740 5738 5735 5733 5730 5728 5726 5723 5720 5717 5714 5710 5707 5704 5701 5698 5694 5690 5686 5683 5679 5674 5670 5666 5662 5658 5654 5649 5645 5640 5635 5630 5625 5619 5614 5608 5602 5596 5589 5582 5574 5566 5558 5550 5542 5534 5525 5516 5508 5500 5492 5486 5481 5475 5469 5464 5460 5458 5457 5455 5453 5451 5448 5446 5445 5443 5441 5439 5438 5436 5435 5434 5434
5757 5756 5754 5753 5751 5750 5748 5747 5745 5744 5742 5740 5737 5735 5733 5730 5728 5726 5724 5721 5718 5715 5712 5709 5706 5703 5700 5696 5693 5689 5685 5681 5677 5673 5669 5665 5661 5657 5653 5648 5644 5639 5634 5629 5624 5619 5614 5609 5603 5596 5589 5582 5575 5568 5560 5552 5544 5536 5528 5519 5511 5502 5495 5489 5483 5477 5471 5466 5461 5458 5457 5456 5454 5452 5450 5448 5446 5444 5442 5441 5439 5438 5436 5435 5435
5754 5753 5752 5750 5749 5747 5746 5744 5743 5741 5739 5737 5735 5732 5730 5728 5726 5724 5722 5719 5716 5713 5710 5707 5704 5701 5698 5695 5691 5688 5684 5680 5676 5671 5667 5663 5659 5655 5651 5647 5643 5638 5634 5629 5624 5619 5614 5609 5603 5596 5590 5583 5576 5569 5562 5554 5546 5538 5530 5522 5514 5505 5498 5491 5484 5478 5473 5468 5463 5459 5457 5456 5455 5453 5451 5449 5447 5445 5443 5442 5440 5439 5437 5436 5436
5751 5750 5749 5747 5746 5745 5743 5742 5740 5738 5736 5734 5732 5730 5728 5726 5724 5722 5720 5717 5714 5712 5709 5706 5702 5699 5696 5693 5690 5686 5682 5678 5674 5670 5666 5662 5658 5654 5650 5646 5642 5638 5633 5629 5624 5619 5614 5609 5603 5597 5590 5583 5577 5570 5563 5555 5548 5540 5533 5525 5516 5508 5500 5493 5486 5481 5475 5470 5464 5460 5458 5456 5456 5454 5452 5450 5448 5446 5444 5442 5441 5439 5438 5437 5436
5748 5747 5746 5744 5743 5741 5740 5738 5737 5735 5733 5731 5729 5727 5725 5723 5721 5720 5717 5715 5713 5710 5707 5704 5701 5698 5695 5691 5688 5685 5681 5677 5673 5669 5665 5661 5657 5653 5650 5646 5642 5638 5633 5629 5624 5619 5614 5609 5603 5597 5591 5584 5577 5571 5564 5557 5549 5542 5535 5527 5519 5511 5503 5495 5488 5483 5477 5471 5466 5462 5459 5457 5456 5455 5453 5452 5449 5447 5445 5443 5441 5440 5438 5437 5436
5745 5743 5742 5741 5739 5738 5737 5735 5734 5732 5730 5728 5726 5725 5723 5721 5719 5717 5715 5713 5710 5708 5705 5702 5699 5696 5693 5690 5686 5683 5680 5676 5672 5668 5664 5660 5656 5653 5649 5645 5641 5637 5633 5628 5624 5619 5614 5609 5603 5597 5591 5585 5579 5572 5565 5558 5551 5544 5537 5529 5521 5513 5505 5498 5491 5485 5479 5473 5468 5464 5460 5457 5456 5455 5454 5453 5451 5448 5446 5444 5442 5440 5439 5438 5437
5741 5739 5738 5737 5736 5735 5733 5732 5730 5729 5727 5725 5724 5722 5720 5718 5716 5714 5712 5710 5708 5706 5703 5700 5697 5694 5691 5688 5685 5681 5678 5675 5671 5667 5663 5659 5655 5652 5648 5645 5641 5636 5632 5628 5623 5619 5614 5609 5603 5598 5592 5586 5580 5573 5567 5560 5553 5546 5539 5532 5524 5516 5509 5501 5494 5487 5481 5476 5471 5466 5462 5459 5457 5456 5455 5453 5452 5450 5448 5446 5444 5441 5440 5438 5437
5737 5736 5734 5733 5732 5731 5729 5728 5727 5725 5724 5722 5721 5719 5717 5715 5714 5712 5710 5708 5706 5703 5701 5698 5695 5692 5689 5686 5683 5680 5677 5673 5670 5666 5662 5658 5655 5651 5648 5644 5640 5636 5632 5628 5623 5618 5613 5608 5603 5598 5592 5587 5580 5574 5568 5561 5555 5548 5541 5534 5527 5519 5511 5504 5496 5489 5484 5478 5473 5468 5464 5460 5457 5456 5455 5454 5453 5451 5449 5447 5445 5442 5440 5439 5438
5734 5732 5731 5729 5728 5727 5725 5724 5723 5722 5720 5719 5718 5716 5714 5712 5711 5709 5707 5705 5703 5701 5698 5696 5693 5690 5687 5684 5681 5678 5675 5672 5669 5665 5661 5657 5654 5650 5647 5643 5639 5635 5631 5627 5623 5618 5613 5608 5603 5598 5593 5587 5581 5575 5569 5562 5556 5549 5543 5536 5529 5521 5514 5506 5500 5493 5487 5481 5476 5471 5466 5461 5458 5457 5455 5454 5453 5452 5450 5448 5446 5443 5441 5440 5439
5730 5729 5727 5725 5724 5723 5722 5720 5719 5718 5717 5716 5714 5713 5711 5709 5708 5706 5704 5702 5700 5698 5696 5693 5691 5688 5685 5683 5680 5677 5673 5670 5667 5664 5660 5656 5653 5649 5645 5642 5638 5635 5631 5626 5622 5618 5613 5608 5603 5598 5593 5588 5582 5576 5570 5564 5557 5551 5544 5538 5531 5524 5517 5510 5503 5497 5490 5483 5478 5473 5468 5463 5460 5457 5456 5455 5454 5453 5451 5449 5447 5445 5443 5441 5440
5725 5724 5723 5721 5720 5719 5718 5716 5715 5714 5713 5712 5711 5709 5708 5706 5705 5703 5701 5699 5697 5695 5693 5691 5689 5686 5683 5681 5678 5675 5672 5669 5666 5662 5659 5655 5652 5648 5644 5641 5637 5634 5630 5626 5622 5617 5613 5608 5603 5598 5593 5588 5583 5577 5571 5565 5559 5552 5546 5540 5533 5526 5519 5512 5506 5499 5493 5486 5480 5475 5470 5466 5461 5458 5456 5455 5454 5453 5452 5450 5449 5446 5444 5442 5441
5720 5719 5719 5717 5716 5715 5714 5713 5711 5710 5709 5708 5707 5706 5704 5703 5701 5699 5698 5696 5694 5692 5690 5688 5686 5684 5681 5678 5676 5673 5670 5667 5664 5661 5657 5654 5650 5647 5643 5640 5636 5633 5629 5625 5621 5617 5612 5608 5603 5599 5594 5589 5583 5578 5572 5566 5560 5554 5548 5542 5536 5529 5522 5515 5509 5503 5496 5490 5483 5478 5473 5468 5464 5460 5457 5455 5454 5453 5453 5451 5450 5448 5446 5444 5442
5716 5715 5714 5713 5712 5711 5710 5709 5707 5706 5705 5704 5703 5702 5700 5699 5698 5696 5694 5692 5691 5689 5687 5685 5683 5681 5679 5676 5673 5670 5667 5665 5662 5659 5656 5653 5649 5645 5642 5638 5635 5632 5628 5624 5620 5616 5612 5608 5603 5599 5594 5589 5584 5579 5573 5567 5561 5555 5550 5544 5538 5531 5525 5518 5512 5505 5499 5493 5487 5481 5475 5471 5466 5462 5459 5456 5455 5454 5453 5452 5450 5449 5447 5445 5443
5711 5710 5710 5708 5707 5707 5706 5705 5703 5702 5701 5699 5698 5697 5697 5696 5694 5692 5690 5689 5687 5686 5684 5682 5680 5678 5676 5674 5671 5668 5665 5663 5660 5657 5654 5651 5648 5644 5641 5637 5634 5630 5627 5623 5619 5615 5612 5608 5603 5599 5594 5589 5584 5579 5574 5568 5562 5557 5551 5546 5540 5534 5527 5521 5514 5508 5502 5496 5490 5484 5478 5473 5469 5465 5461 5458 5456 5454 5453 5452 5451 5449 5448 5446 5444
5705 5705 5705 5704 5703 5702 5701 5700 5699 5697 5696 5695 5694 5693 5692 5691 5690 5688 5687 5685 5684 5682 5680 5679 5677 5675 5673 5671 5668 5666 5663 5660 5658 5655 5652 5649 5646 5643 5639 5636 5632 5629 5626 5622 5619 5615 5611 5607 5603 5599 5594 5590 5585 5580 5575 5569 5563 5558 5552 5547 5542 5536 5529 5523 5517 5511 5505 5499 5493 5487 5481 5476 5471 5467 5463 5460 5457 5455 5454 5453 5452 5450 5449 5447 5445
5700 5700 5700 5700 5698 5697 5697 5696 5694 5693 5692 5690 5689 5689 5688 5687 5685 5684 5683 5681 5680 5678 5677 5675 5674 5672 5670 5668 5666 5663 5661 5658 5655 5653 5650 5648 5645 5641 5638 5634 5631 5628 5625 5621 5618 5614 5610 5607 5603 5599 5594 5590 5585 5580 5575 5570 5564 5559 5554 5549 5544 5538 5532 5526 5520 5514 5508 5502 5496 5490 5484 5479 5474 5469 5465 5462 5459 5456 5455 5454 5452 5451 5450 5448 5447
5695 5695 5694 5694 5693 5692 5692 5691 5690 5688 5687 5686 5685 5684 5683 5682 5681 5680 5678 5677 5676 5674 5673 5671 5670 5668 5667 5664 5662 5660 5658 5655 5653 5650 5648 5646 5643 5640 5636 5633 5629 5626 5623 5620 5617 5613 5609 5606 5602 5599 5595 5590 5585 5581 5576 5571 5566 5560 5555 5551 5546 5540 5534 5528 5523 5517 5511 5505 5499 5493 5487 5482 5477 5472 5468 5464 5461 5458 5456 5454 5453 5452 5451 5450 5448
5689 5689 5689 5688 5688 5687 5687 5686 5685 5684 5682 5681 5680 5679 5678 5677 5676 5675 5674 5673 5671 5670 5669 5667 5666 5665 5663 5661 5659 5657 5655 5653 5650 5648 5646 5643 5641 5638 5635 5631 5628 5625 5622 5619 5616 5612 5609 5605 5602 5598 5595 5590 5586 5581 5577 5572 5567 5562 5557 5552 5547 5542 5536 5531 5525 5519 5514 5509 5503 5497 5491 5486 5480 5475 5471 5467 5464 5460 5457 5455 5454 5453 5452 5451 5450
5683 5683 5683 5683 5682 5682 5681 5680 5679 5678 5677 5676 5675 5674 5673 5672 5671 5670 5669 5668 5667 5666 5664 5663 5662 5661 5659 5658 5656 5654 5652 5650 5647 5645 5643 5641 5639 5636 5633 5629 5626 5623 5620 5617 5614 5611 5608 5604 5601 5598 5594 5590 5586 5581 5577 5572 5568 5563 5558 5554 5549 5544 5538 5533 5527 5522 5517 5512 5506 5501 5495 5489 5483 5478 5474 5470 5466 5462 5459 5457 5455 5453 5453 5452 5451
5677 5677 5676 5676 5676 5676 5675 5675 5674 5673 5672 5671 5670 5669 5668 5667 5666 5665 5664 5664 5663 5661 5660 5659 5658 5656 5655 5654 5652 5650 5648 5646 5644 5642 5640 5639 5636 5634 5631 5627 5624 5621 5619 5616 5613 5610 5607 5603 5600 5597 5594 5590 5586 5582 5577 5573 5569 5564 5559 5555 5551 5546 5540 5535 5530 5525 5520 5515 5510 5505 5499 5493 5487 5482 5477 5472 5468 5465 5461 5458 5456 5454 5453 5452 5452
5670 5670 5670 5669 5669 5669 5669 5668 5668 5667 5666 5666 5665 5664 5663 5662 5661 5660 5659 5659 5658 5656 5655 5654 5653 5652 5651 5650 5649 5647 5645 5643 5641 5639 5637 5636 5634 5631 5628 5625 5622 5620 5617 5614 5611 5608 5606 5602 5599 5596 5593 5590 5586 5582 5578 5574 5569 5565 5560 5556 5552 5547 5542 5537 5532 5527 5523 5518 5513 5508 5503 5497 5492 5486 5480 5475 5471 5467 5464 5461 5458 5455 5454 5453 5452
5662 5663 5662 5662 5662 5662 5662 5661 5661 5661 5660 5660 5659 5658 5658 5657 5656 5655 5654 5653 5652 5651 5650 5650 5649 5647 5647 5646 5644 5643 5641 5640 5638 5636 5634 5633 5631 5629 5626 5623 5620 5618 5615 5612 5610 5607 5604 5601 5598 5595 5592 5589 5585 5581 5578 5574 5570 5565 5561 5557 5553 5549 5544 5539 5534 5529 5525 5520 5516 5511 5507 5501 5496 5490 5484 5479 5474 5470 5466 5463 5460 5457 5455 5453 5452
5654 5655 5655 5655 5655 5655 5655 5654 5655 5654 5653 5653 5653 5652 5651 5651 5650 5649 5647 5646 5646 5645 5645 5644 5643 5643 5642 5641 5640 5639 5638 5636 5634 5632 5630 5629 5628 5626 5623 5621 5618 5615 5613 5610 5608 5605 5602 5600 5597 5594 5591 5588 5585 5581 5577 5574 5570 5566 5562 5558 5554 5550 5545 5540 5536 5531 5527 5522 5518 5514 5509 5504 5499 5494 5488 5483 5478 5473 5469 5466 5462 5460 5457 5455 5453